GW1707 Weather Reports


Display with metric or nautical units.
time (UTC)temp
F
wind
direction
speed
MPH
gust
MPH
rain 1hr
in
rain 24hr
in
rain mn
in
humidity
%
barometer
mb
20260507020053 50 0 0.0 0.0 0.00 0.08 0.00 80 1032.2
20260507014555 50 0 0.0 0.0 0.00 0.08 0.00 79 1032.2
20260507013100 51 0 0.0 0.0 0.00 0.08 0.00 75 1032.0
20260507011556 51 0 0.0 0.0 0.00 0.08 0.00 74 1031.8
20260507010054 52 0 0.0 0.0 0.00 0.08 0.00 74 1031.6
20260507004550 50 0 0.0 0.0 0.00 0.08 0.00 73 1031.5
20260507003056 50 0 0.0 0.0 0.00 0.08 0.00 75 1031.5
20260507001557 49 0 0.0 0.0 0.00 0.08 0.00 74 1031.5
20260507000058 49 0 0.0 0.0 0.00 0.08 0.00 79 1031.6
20260506234555 48 0 0.0 0.0 0.00 0.08 0.00 87 1031.5
20260506233052 47 0 0.0 0.0 0.00 0.08 0.00 88 1031.3
20260506231556 46 0 0.0 0.0 0.00 0.08 0.00 89 1031.2
20260506230056 45 0 0.0 0.0 0.00 0.08 0.00 89 1031.2
20260506224603 45 0 0.0 0.0 0.00 0.08 0.00 89 1031.0
20260506223054 45 0 0.0 0.0 0.00 0.08 0.00 89 1030.7
20260506221555 45 0 0.0 0.0 0.00 0.08 0.00 89 1030.5
20260506220057 44 0 0.0 0.0 0.00 0.08 0.00 89 1030.3
20260506214608 44 0 0.0 0.0 0.00 0.08 0.00 89 1030.2
20260506213053 44 0 0.0 0.0 0.00 0.08 0.00 89 1030.0
20260506211554 45 0 0.0 0.0 0.00 0.08 0.00 89 1029.7
20260506210054 45 0 0.0 0.0 0.00 0.08 0.00 89 1029.5
20260506204559 45 0 0.0 0.0 0.00 0.08 0.00 89 1029.3
20260506203052 45 0 0.0 0.0 0.00 0.08 0.00 89 1029.1
20260506201552 45 0 0.0 0.0 0.00 0.08 0.00 89 1029.0
20260506200054 45 0 0.0 0.0 0.00 0.08 0.00 89 1029.0
20260506194604 45 0 0.0 0.0 0.00 0.08 0.00 89 1029.0
20260506193058 45 0 0.0 0.0 0.00 0.08 0.00 90 1028.7
20260506191554 45 0 0.0 0.0 0.00 0.08 0.00 89 1028.7
20260506190053 45 0 0.0 0.0 0.00 0.08 0.00 89 1028.7
20260506184556 46 0 0.0 0.0 0.00 0.08 0.00 88 1028.5
20260506183105 45 0 0.0 0.0 0.00 0.08 0.00 87 1028.3
20260506181559 46 0 0.0 0.0 0.00 0.08 0.00 86 1028.3
20260506180055 46 0 0.0 0.0 0.00 0.08 0.00 86 1028.3
20260506174553 46 0 0.0 0.0 0.00 0.08 0.00 86 1028.1
20260506173055 46 0 0.0 0.0 0.00 0.08 0.00 86 1028.1
20260506171557 46 0 0.0 0.0 0.00 0.08 0.00 85 1028.4
20260506170056 47 0 0.0 0.0 0.00 0.08 0.00 83 1028.3
20260506164600 47 0 0.0 0.0 0.00 0.08 0.00 81 1028.3
20260506163104 46 0 0.0 0.0 0.00 0.08 0.00 78 1028.3
20260506161603 46 0 0.0 0.0 0.00 0.08 0.00 77 1028.2
20260506160052 46 0 0.0 0.0 0.00 0.08 0.00 79 1028.3
20260506154611 46 0 0.0 0.0 0.00 0.08 0.00 80 1028.3
20260506153055 46 0 0.0 0.0 0.00 0.08 0.00 81 1028.2
20260506151555 46 0 0.0 0.0 0.00 0.08 0.00 81 1028.1
20260506150056 47 0 0.0 0.0 0.00 0.08 0.00 80 1028.1
20260506144600 47 0 0.0 0.0 0.00 0.08 0.00 78 1028.0
20260506143052 47 0 0.0 0.0 0.00 0.08 0.00 78 1028.1
20260506141604 47 0 0.0 0.0 0.00 0.08 0.08 79 1028.2
20260506140112 47 0 0.0 0.0 0.00 0.08 0.08 79 1028.2
20260506134557 47 0 0.0 0.0 0.00 0.08 0.08 79 1028.0
20260506133104 47 0 0.0 0.0 0.00 0.08 0.08 80 1027.9
20260506131558 47 0 0.0 0.0 0.00 0.08 0.08 82 1028.0
20260506130053 47 0 0.0 0.0 0.00 0.08 0.08 84 1027.9
20260506124555 47 0 0.0 0.0 0.00 0.08 0.08 85 1027.7
20260506123053 48 0 0.0 0.0 0.00 0.08 0.08 89 1027.8
20260506121552 48 0 0.0 0.0 0.00 0.08 0.08 90 1027.7
20260506120055 48 0 0.0 0.0 0.00 0.08 0.08 91 1027.6
20260506114559 48 0 0.0 0.0 0.00 0.08 0.08 92 1027.6
20260506113058 48 0 0.0 0.0 0.00 0.08 0.08 92 1027.3
20260506111557 48 0 0.0 0.0 0.00 0.08 0.08 94 1027.2
20260506110052 48 0 0.0 0.0 0.00 0.08 0.08 95 1027.0
20260506104558 48 0 0.0 0.0 0.00 0.08 0.08 95 1027.0
20260506103059 48 0 0.0 0.0 0.00 0.08 0.08 95 1026.7
20260506101553 48 0 0.0 0.0 0.00 0.08 0.08 95 1026.7
20260506094555 49 0 0.0 0.0 0.00 0.08 0.08 95 1026.4
20260506093102 49 0 0.0 0.0 0.01 0.08 0.08 95 1026.3
20260506091601 50 0 0.0 0.0 0.02 0.08 0.08 95 1026.1
20260506090059 51 0 0.0 0.0 0.02 0.08 0.08 94 1025.7
20260506084603 51 0 0.0 0.0 0.02 0.08 0.08 93 1025.5
20260506083058 52 0 0.0 0.0 0.00 0.07 0.07 93 1025.1
20260506081600 53 0 0.0 0.0 0.00 0.06 0.06 91 1024.9
20260506073058 55 0 0.0 0.0 0.00 0.06 0.06 86 1024.4
20260506071555 56 0 0.0 0.0 0.00 0.06 0.06 84 1024.2
20260506061556 58 0 0.0 0.0 0.00 0.06 0.06 82 1024.0
20260506044621 54 0 0.0 0.0 0.00 0.06 0.06 96 1023.6
20260506043058 54 0 0.0 0.0 0.00 0.06 0.06 96 1023.7
20260506041555 55 0 0.0 0.0 0.00 0.06 0.06 96 1023.7
20260506040056 54 0 0.0 0.0 0.00 0.05 0.05 96 1023.7
20260506034552 55 0 0.0 0.0 0.01 0.05 0.05 96 1023.7
20260506033056 54 0 0.0 0.0 0.05 0.05 0.05 96 1023.8
20260506031557 54 0 0.0 0.0 0.05 0.05 0.05 96 1023.9
20260506030059 55 0 0.0 0.0 0.05 0.05 0.05 95 1023.9
20260506024600 55 0 0.0 0.0 0.03 0.03 0.03 95 1024.1
20260506023100 55 0 0.0 0.0 0.00 0.00 0.00 95 1024.2
20260506021605 55 0 0.0 0.0 0.00 0.00 0.00 94 1024.4